Location: Puketoi
(40.5833°S, 176.0167°E)
Time: 15:22:31
(UTC+00:00)

Cosmos 1269 Rocket - Pass Details

Date: 08 February 2023
Orbit: 771 x 779 km, 74.1° (Epoch: 22 March)

Event Time Altitude Azimuth Distance (km) Brightness Sun altitude
Exits shadow 15:31:41 40° 335° (NNW) 1,151 4.4 -20.3°
Maximum altitude 15:33:42 83° 251° (WSW) 796 4.0 -20.1°
Drops below altitude 10° 15:39:05 10° 162° (SSE) 2,354 7.4 -19.3°
Sets 15:41:29 0° 161° (SSE) 3,288 8.3 -19.0°
